Retour au catalogue

FENGYUN 1C DEB

ActifPO
NORAD 30763·DEBRIS·🇨🇳 China

Lancé May 10, 1999 depuis Taiyuan Satellite Launch Center

Loading…

Prochains Passages (prochaines 24 heures)

TLE

FraisSource: Space-Track

Époque: Sep 14, 2026, 21:50 UTC

1 30763U 99025ATZ 26257.91035131  .00019912  00000-0  31462-2 0  9999
2 30763  98.8868 357.4228 0020095 141.3204 288.7865 14.72232321 11913

Suivez FENGYUN 1C DEB en temps réel avec AllMySat

Download on the App Store